Satellite: CO-66
Catalog number: 32791
Epoch time:      11152.42961552
Element set:    0996
Inclination:      097.8508 deg
RA of node:       216.4856 deg
Eccentricity:    0.0015101
Arg of perigee:   223.2381 deg
Mean anomaly:     136.7647 deg
Mean motion:   14.82111219 rev/day
Decay rate:      1.306e-05 rev/day^2
Epoch rev:           16717
Checksum:              305

Satellite: RS-30
Catalog number: 32953
Epoch time:      11153.98149507
Element set:     786
Inclination:      082.5005 deg
RA of node:       171.5544 deg
Eccentricity:    0.0020353
Arg of perigee:   060.1110 deg
Mean anomaly:     300.1991 deg
Mean motion:   12.43013205 rev/day
Decay rate:        1.0e-07 rev/day^2
Epoch rev:           13732
Checksum:              241

Satellite: TACSAT-3
Catalog number: 35001
Epoch time:      11152.77703441
Element set:     606
Inclination:      040.4514 deg
RA of node:       266.3207 deg
Eccentricity:    0.0021599
Arg of perigee:   091.6404 deg
Mean anomaly:     268.6887 deg
Mean motion:   15.48651980 rev/day
Decay rate:     1.8467e-04 rev/day^2
Epoch rev:           11469
Checksum:              308

Satellite: PHARMSAT
Catalog number: 35002
Epoch time:      11152.67574439
Element set:    0568
Inclination:      040.4677 deg
RA of node:       264.6098 deg
Eccentricity:    0.0023287
Arg of perigee:   099.4319 deg
Mean anomaly:     260.9127 deg
Mean motion:   15.48301208 rev/day
Decay rate:     1.5921e-04 rev/day^2
Epoch rev:           11470
Checksum:              301

Satellite: HAWKSAT1
Catalog number: 35003
Epoch time:      11153.54287413
Element set:     637
Inclination:      040.4564 deg
RA of node:       232.6889 deg
Eccentricity:    0.0019967
Arg of perigee:   129.6728 deg
Mean anomaly:     230.5860 deg
Mean motion:   15.64066499 rev/day
Decay rate:     6.9290e-04 rev/day^2
Epoch rev:           11513
Checksum:              319

Satellite: CP6
Catalog number: 35004
Epoch time:      11153.56278888
Element set:     641
Inclination:      040.4540 deg
RA of node:       224.6342 deg
Eccentricity:    0.0018715
Arg of perigee:   131.0252 deg
Mean anomaly:     229.2196 deg
Mean motion:   15.70159308 rev/day
Decay rate:    1.02255e-03 rev/day^2
Epoch rev:           11521
Checksum:              269

Satellite: METEOR-M
Catalog number: 35865
Epoch time:      11153.72522719
Element set:     423
Inclination:      098.7067 deg
RA of node:       209.0399 deg
Eccentricity:    0.0003480
Arg of perigee:   070.6732 deg
Mean anomaly:     289.4779 deg
Mean motion:   14.21839008 rev/day
Decay rate:       1.76e-06 rev/day^2
Epoch rev:            8853
Checksum:              321

Satellite: RS-38
Catalog number: 35869
Epoch time:      11153.72707712
Element set:     416
Inclination:      098.7037 deg
RA of node:       209.0786 deg
Eccentricity:    0.0005678
Arg of perigee:   070.5623 deg
Mean anomaly:     289.6133 deg
Mean motion:   14.22012447 rev/day
Decay rate:       1.77e-06 rev/day^2
Epoch rev:            8854
Checksum:              321

/EX


_______________________________________________
Via the Keps mailing list courtesy of AMSAT-NA
http://amsat.org/mailman/listinfo/keps

--- ViaMAIL!/WC v1.60d
 * Origin: Chowdanet (401-724-4410) telnet://chowdanet.com  (1:323/120)